Weather History for PABT - March, 2013

Change the Weather History Date:

Saturday, March 16, 2013

  Actual Average Record
Temperature  
Mean Temperature 0 °F -  
Max Temperature 19 °F 15 °F 38 °F (1981)
Min Temperature -20 °F -8 °F -47 °F (1964)
Degree Days  
Heating Degree Days 66    
Moisture  
Dew Point -13 °F    
Average Humidity 58    
Maximum Humidity 79    
Minimum Humidity 19    
Precipitation  
Precipitation 0.00 in - - ()
Snow  
Snow 0.00 in - - ()
Snow Depth 17.00 in    
Sea Level Pressure  
Sea Level Pressure 30.24 in    
Wind  
Wind Speed 1 mph (South)    
Max Wind Speed 5 mph    
Max Gust Speed -    
Visibility 10 miles    
Events      
Averages and records for this station are not official NWS values.
T = Trace of Precipitation, MM = Missing Value Source: NWS Daily Summary

Daily Weather History Graph

Daily Weather History Graph

Search for Another Location

Airport or City:

Trip Planner

Search our weather history database for the weather conditions in past years. The results will help you decide how hot, cold, wet, or windy it might be!

Date:

Astronomy

Mar. 16, 2013 Rise Set
Actual Time 8:20 AM AKDT 8:10 PM AKDT
Civil Twilight 7:27 AM AKDT 9:03 PM AKDT
Nautical Twilight 6:23 AM AKDT 10:08 PM AKDT
Astronomical Twilight 5:08 AM AKDT 11:24 PM AKDT
Moon 8:32 AM AKDT (3/16) 2:52 AM AKDT (3/16)
Length of Visible Light 13h 36m
Length of Day
11h 50m
Waxing Crescent, 24% of the Moon is Illuminated
Mar 16
Waxing Crescent
Mar 19
First Quarter
Mar 27
Full
Apr 2
Last Quarter
Apr 10
New

Hourly Weather History & Observations

Time (AKDT) Temp. Windchill Dew Point Humidity Pressure Visibility Wind Dir Wind Speed Gust Speed Precip Events Conditions
12:53 AM -6.0 °F -14.7 °F -14.1 °F 68% 30.17 in 10.0 mi WSW 3.5 mph - N/A   Clear
1:53 AM -9.0 °F - -13.9 °F 79% 30.18 in 10.0 mi Calm Calm - N/A   Clear
2:53 AM -9.0 °F -18.2 °F -15.0 °F 75% 30.19 in 10.0 mi SSE 3.5 mph - N/A   Clear
3:53 AM -11.0 °F - -16.1 °F 78% 30.19 in 10.0 mi Calm Calm - N/A   Clear
4:53 AM -11.9 °F - -18.0 °F 74% 30.19 in 10.0 mi Calm Calm - N/A   Clear
5:53 AM -15.0 °F - -20.0 °F 78% 30.20 in 10.0 mi Calm Calm - N/A   Clear
6:53 AM -18.9 °F - -24.0 °F 78% 30.22 in 10.0 mi Calm Calm - N/A   Clear
7:53 AM -18.0 °F -28.5 °F -23.1 °F 78% 30.23 in 10.0 mi NNE 3.5 mph - N/A   Clear
8:53 AM -18.9 °F - -24.0 °F 78% 30.25 in 10.0 mi Calm Calm - N/A   Clear
9:53 AM -14.1 °F - -20.0 °F 75% 30.25 in 10.0 mi Calm Calm - N/A   Clear
10:53 AM -2.9 °F - -11.9 °F 65% 30.26 in 10.0 mi Calm Calm - N/A   Clear
11:53 AM 3.9 °F - -9.0 °F 55% 30.26 in 10.0 mi Calm Calm - N/A   Clear
12:53 PM 10.0 °F - -8.0 °F 44% 30.26 in 10.0 mi Calm Calm - N/A   Clear
1:53 PM 15.1 °F - -7.1 °F 37% 30.25 in 10.0 mi Calm Calm - N/A   Clear
2:53 PM 18.0 °F 12.7 °F -6.0 °F 35% 30.25 in 10.0 mi SSE 3.5 mph - N/A   Clear
3:53 PM 18.0 °F 12.7 °F -6.0 °F 35% 30.25 in 10.0 mi SW 3.5 mph - N/A   Clear
4:53 PM 19.0 °F 12.3 °F -6.0 °F 33% 30.24 in 10.0 mi SSW 4.6 mph - N/A   Clear
5:53 PM 19.9 °F 14.9 °F -7.1 °F 30% 30.25 in 10.0 mi SSW 3.5 mph - N/A   Clear
6:53 PM 19.0 °F - -6.0 °F 33% 30.25 in 10.0 mi Calm Calm - N/A   Clear
7:53 PM 16.0 °F - -6.0 °F 38% 30.26 in 10.0 mi Calm Calm - N/A   Clear
8:53 PM 3.0 °F - -9.0 °F 57% 30.28 in 10.0 mi Calm Calm - N/A   Clear
9:53 PM -0.9 °F -8.9 °F -11.9 °F 60% 30.29 in 10.0 mi South 3.5 mph - N/A   Clear
10:53 PM -7.1 °F - -15.0 °F 68% 30.30 in 10.0 mi Calm Calm - N/A   Clear
11:53 PM -9.0 °F - -16.1 °F 71% 30.32 in 10.0 mi Calm Calm - N/A   Clear